Time,RelativeTimeMilliseconds,Clock,HR,ST-II,Pulse,SpO2,Perf,etCO2,imCO2,awRR,NBP (Sys),NBP (Dia),NBP (Mean),NBP (Pulse),NBP (Time Remaining),ART (Sys),ART (Dia),ART (Mean),etDES,inDES,etISO,inISO,etSEV,inSEV,etN2O,inN2O,MAC,etO2,inO2,Temp,BIS,SQI,EMG,Tidal Volume,Minute Volume,RR,Set Tidal Volume,Set RR,Set I:E Ratio,Set PEEP,Set PAWmax,Set PAWmin,Set Mechanical Ventilation,Tidal Volume Exp (Spiro),Tidal Volume In (Spiro),Minute Volume Exp (Spiro),Minute Volume In (Spiro),Lung Compliance (Spiro),Airway Resistance (Spiro),Max Inspiratory Pressure (Spiro),Num Patient Alarms,Num Technical Alarms,Alarms...
00:00:00_000,0,14:02,69,0.7,69,99,4.8,34,1,15,105,70,78,74,41,,,,,,,,2.60,3.05,0.00,0.00,1.3,62,66,,,,,548,8.2,15,550,15,2.0,0,40,15,1,,,,,,,,0,0,
00:00:01_000,1000,14:02,69,0.7,70,99,4.8,34,1,15,105,70,78,74,40,,,,,,,,2.60,3.05,0.00,0.00,1.3,62,66,,,,,548,8.2,15,550,15,2.0,0,40,15,1,,,,,,,,0,0,
00:00:02_000,2000,14:02,69,0.7,69,99,4.8,34,1,15,105,70,78,74,39,,,,,,,,2.60,3.05,0.00,0.00,1.3,62,66,,,,,548,8.2,15,550,15,2.0,0,40,15,1,,,,,,,,0,0,
00:00:03_000,3000,14:02,69,0.7,69,99,4.8,34,1,15,105,70,78,74,38,,,,,,,,2.60,3.05,0.00,0.00,1.3,62,66,,,,,548,8.2,15,550,15,2.0,0,40,15,1,,,,,,,,0,0,
00:00:04_000,4000,14:02,69,0.7,69,99,4.8,34,1,15,105,70,78,74,37,,,,,,,,2.60,3.05,0.00,0.00,1.3,62,66,,,,,548,8.2,15,550,15,2.0,0,40,15,1,,,,,,,,0,0,
00:00:05_000,5000,14:02,69,0.7,70,99,4.8,34,1,15,105,70,78,74,36,,,,,,,,2.60,3.05,0.00,0.00,1.3,62,66,,,,,551,8.2,15,550,15,2.0,0,40,15,1,,,,,,,,0,0,
00:00:06_000,6000,14:02,69,0.7,69,99,4.8,34,1,15,105,70,78,74,35,,,,,,,,2.60,3.05,0.00,0.00,1.3,62,66,,,,,551,8.2,15,550,15,2.0,0,40,15,1,,,,,,,,0,0,
00:00:07_000,7000,14:02,69,0.7,69,99,4.8,34,1,15,105,70,78,74,34,,,,,,,,2.60,3.05,0.00,0.00,1.3,62,66,,,,,551,8.2,15,550,15,2.0,0,40,15,1,,,,,,,,0,0,
00:00:08_000,8000,14:02,69,0.7,69,99,4.9,34,1,15,105,70,78,74,33,,,,,,,,2.60,3.05,0.00,0.00,1.3,62,66,,,,,551,8.2,15,550,15,2.0,0,40,15,1,,,,,,,,0,0,
00:00:09_000,9000,14:02,69,0.7,69,99,5.0,34,1,15,105,70,78,74,32,,,,,,,,2.60,3.05,0.00,0.00,1.2,62,66,,,,,551,8.2,15,550,15,2.0,0,40,15,1,,,,,,,,0,0,
00:00:10_000,10000,14:02,69,0.7,69,99,5.0,34,1,15,105,70,78,74,31,,,,,,,,2.60,3.05,0.00,0.00,1.2,62,66,,,,,551,8.2,15,550,15,2.0,0,40,15,1,,,,,,,,0,0,
00:00:11_000,11000,14:02,69,0.7,68,99,5.0,34,1,15,105,70,78,74,30,,,,,,,,2.60,3.05,0.00,0.00,1.2,62,66,,,,,551,8.2,15,550,15,2.0,0,40,15,1,,,,,,,,0,0,
00:00:12_000,12000,14:02,69,0.7,68,99,5.0,34,1,15,105,70,78,74,29,,,,,,,,2.60,3.05,0.00,0.00,1.2,62,66,,,,,551,8.2,15,550,15,2.0,0,40,15,1,,,,,,,,0,0,
00:00:13_000,13000,14:02,69,0.7,68,99,5.1,34,1,15,105,70,78,74,28,,,,,,,,2.60,3.05,0.00,0.00,1.2,62,66,,,,,551,8.2,15,550,15,2.0,0,40,15,1,,,,,,,,0,0,
00:00:14_000,14000,14:02,69,0.7,68,99,5.1,34,1,15,105,70,78,74,28,,,,,,,,2.60,3.05,0.00,0.00,1.2,62,66,,,,,551,8.2,15,550,15,2.0,0,40,15,1,,,,,,,,0,0,
00:00:15_000,15000,14:02,68,0.7,68,99,5.1,34,1,15,105,70,78,74,26,,,,,,,,2.60,3.05,0.00,0.00,1.2,62,66,,,,,547,8.2,15,550,15,2.0,0,40,15,1,,,,,,,,0,0,
00:00:16_000,16000,14:02,68,0.7,68,99,5.1,34,1,15,105,70,78,74,26,,,,,,,,2.60,3.05,0.00,0.00,1.2,62,66,,,,,547,8.2,15,550,15,2.0,0,40,15,1,,,,,,,,0,0,
00:00:17_000,17000,14:02,69,0.7,68,99,5.1,34,1,15,105,70,78,74,25,,,,,,,,2.60,3.05,0.00,0.00,1.2,62,66,,,,,547,8.2,15,550,15,2.0,0,40,15,1,,,,,,,,0,0,
00:00:18_000,18000,14:02,69,0.7,68,99,5.1,34,1,15,105,70,78,74,24,,,,,,,,2.60,3.05,0.00,0.00,1.2,62,66,,,,,547,8.2,15,550,15,2.0,0,40,15,1,,,,,,,,0,0,
00:00:19_000,19000,14:02,68,0.7,68,99,5.1,34,1,15,105,70,78,74,23,,,,,,,,2.60,3.05,0.00,0.00,1.2,62,66,,,,,547,8.2,15,550,15,2.0,0,40,15,1,,,,,,,,0,0,
00:00:20_000,20000,14:02,68,0.7,68,99,5.1,34,1,15,105,70,78,74,22,,,,,,,,2.60,3.05,0.00,0.00,1.2,62,66,,,,,547,8.2,15,550,15,2.0,0,40,15,1,,,,,,,,0,0,
00:00:21_000,21000,14:02,68,0.7,68,99,5.1,33,1,15,105,70,78,74,21,,,,,,,,2.60,3.05,0.00,0.00,1.2,61,66,,,,,547,8.2,15,550,15,2.0,0,40,15,1,,,,,,,,0,0,
00:00:22_000,22000,14:02,68,0.7,68,99,5.1,33,1,15,105,70,78,74,20,,,,,,,,2.60,3.05,0.00,0.00,1.2,61,66,,,,,547,8.2,15,550,15,2.0,0,40,15,1,,,,,,,,0,0,
00:00:23_000,23000,14:02,68,0.7,68,99,5.1,33,1,15,105,70,78,74,19,,,,,,,,2.60,3.05,0.00,0.00,1.2,61,66,,,,,547,8.2,15,550,15,2.0,0,40,15,1,,,,,,,,0,0,
00:00:24_000,24000,14:02,68,0.7,68,99,5.1,34,1,15,105,70,78,74,18,,,,,,,,2.60,3.05,0.00,0.00,1.2,61,66,,,,,547,8.2,15,550,15,2.0,0,40,15,1,,,,,,,,0,0,
00:00:25_000,25000,14:02,68,0.7,68,99,5.1,34,1,15,105,70,78,74,17,,,,,,,,2.60,3.05,0.00,0.00,1.2,61,65,,,,,550,8.2,15,550,15,2.0,0,40,15,1,,,,,,,,0,0,
00:00:26_000,26000,14:02,68,0.7,68,99,5.2,34,1,15,105,70,78,74,16,,,,,,,,2.60,3.05,0.00,0.00,1.2,61,65,,,,,550,8.2,15,550,15,2.0,0,40,15,1,,,,,,,,0,0,
00:00:27_000,27000,14:02,68,0.7,67,99,5.2,34,1,15,105,70,78,74,15,,,,,,,,2.60,3.05,0.00,0.00,1.2,61,65,,,,,550,8.2,15,550,15,2.0,0,40,15,1,,,,,,,,0,0,
00:00:28_000,28000,14:02,68,0.7,67,99,5.2,34,1,15,105,70,78,74,14,,,,,,,,2.60,3.05,0.00,0.00,1.2,61,65,,,,,550,8.2,15,550,15,2.0,0,40,15,1,,,,,,,,0,0,
00:00:29_000,29000,14:02,68,0.7,67,99,5.2,33,1,15,105,70,78,74,13,,,,,,,,2.60,3.05,0.00,0.00,1.2,61,65,,,,,550,8.2,15,550,15,2.0,0,40,15,1,,,,,,,,0,0,
00:00:30_000,30000,14:02,68,0.7,68,99,5.2,33,1,15,105,70,78,74,12,,,,,,,,2.60,3.05,0.00,0.00,1.2,61,65,,,,,550,8.2,15,550,15,2.0,0,40,15,1,,,,,,,,0,0,
00:00:31_000,31000,14:02,68,0.7,68,99,5.1,33,1,15,105,70,78,74,11,,,,,,,,2.60,3.05,0.00,0.00,1.2,61,65,,,,,550,8.2,15,550,15,2.0,0,40,15,1,,,,,,,,0,0,
00:00:32_000,32000,14:02,68,0.7,68,99,5.1,34,1,15,105,70,78,74,10,,,,,,,,2.60,3.05,0.00,0.00,1.2,61,65,,,,,550,8.2,15,550,15,2.0,0,40,15,1,,,,,,,,0,0,
00:00:33_000,33000,14:02,68,0.7,68,99,5.1,33,1,15,105,70,78,74,9,,,,,,,,2.60,3.00,0.00,0.00,1.2,61,65,,,,,550,8.2,15,550,15,2.0,0,40,15,1,,,,,,,,0,0,
00:00:34_000,34000,14:02,68,0.7,68,99,5.1,33,1,15,105,70,78,74,8,,,,,,,,2.60,3.00,0.00,0.00,1.2,61,65,,,,,550,8.2,15,550,15,2.0,0,40,15,1,,,,,,,,0,0,
00:00:35_000,35000,14:02,68,0.7,68,99,5.1,33,1,15,105,70,78,74,7,,,,,,,,2.60,3.00,0.00,0.00,1.2,61,65,,,,,550,8.3,15,550,15,2.0,0,40,15,1,,,,,,,,0,0,
00:00:36_000,36000,14:02,68,0.7,68,99,5.2,33,1,15,105,70,78,74,6,,,,,,,,2.60,3.00,0.00,0.00,1.2,61,65,,,,,550,8.3,15,550,15,2.0,0,40,15,1,,,,,,,,0,0,
00:00:37_000,37000,14:02,68,0.7,68,99,5.2,33,1,15,105,70,78,74,5,,,,,,,,2.60,3.00,0.00,0.00,1.2,61,65,,,,,550,8.3,15,550,15,2.0,0,40,15,1,,,,,,,,0,0,
00:00:38_000,38000,14:02,68,0.7,68,99,5.2,33,1,15,105,70,78,74,4,,,,,,,,2.60,3.00,0.00,0.00,1.2,61,65,,,,,550,8.3,15,550,15,2.0,0,40,15,1,,,,,,,,0,0,
00:00:39_000,39000,14:02,68,0.7,67,99,5.2,33,1,15,105,70,78,74,3,,,,,,,,2.60,3.00,0.00,0.00,1.2,61,65,,,,,550,8.3,15,550,15,2.0,0,40,15,1,,,,,,,,0,0,
00:00:40_000,40000,14:03,68,0.7,67,99,5.2,33,1,15,105,70,78,74,2,,,,,,,,2.60,3.00,0.00,0.00,1.2,61,65,,,,,550,8.3,15,550,15,2.0,0,40,15,1,,,,,,,,0,0,
00:00:41_000,41000,14:03,67,0.7,67,99,5.2,34,1,15,105,70,78,74,1,,,,,,,,2.60,3.00,0.00,0.00,1.2,61,65,,,,,550,8.3,15,550,15,2.0,0,40,15,1,,,,,,,,0,0,
00:00:42_000,42000,14:03,67,0.7,67,99,5.2,34,1,15,105,70,78,74,0,,,,,,,,2.60,3.00,0.00,0.00,1.2,61,65,,,,,550,8.3,15,550,15,2.0,0,40,15,1,,,,,,,,0,0,
00:00:43_000,43000,14:03,67,0.7,67,99,5.2,34,1,15,105,70,78,74,299,,,,,,,,2.60,3.00,0.00,0.00,1.2,61,65,,,,,550,8.3,15,550,15,2.0,0,40,15,1,,,,,,,,0,0,
00:00:44_000,44000,14:03,67,0.7,67,99,5.3,34,1,15,105,70,78,74,297,,,,,,,,2.60,3.00,0.00,0.00,1.2,61,65,,,,,550,8.3,15,550,15,2.0,0,40,15,1,,,,,,,,0,0,
00:00:45_000,45000,14:03,67,0.7,67,99,5.3,33,1,15,105,70,78,74,296,,,,,,,,2.60,3.00,0.00,0.00,1.2,61,65,,,,,551,8.2,15,550,15,2.0,0,40,15,1,,,,,,,,0,0,
00:00:46_000,46000,14:03,67,0.7,67,99,5.3,33,1,15,105,70,78,74,295,,,,,,,,2.60,3.00,0.00,0.00,1.2,61,65,,,,,551,8.2,15,550,15,2.0,0,40,15,1,,,,,,,,0,0,
00:00:47_000,47000,14:03,67,0.7,67,99,5.3,33,1,15,105,70,78,74,294,,,,,,,,2.60,3.00,0.00,0.00,1.2,61,65,,,,,551,8.2,15,550,15,2.0,0,40,15,1,,,,,,,,0,0,
00:00:48_000,48000,14:03,67,0.7,67,99,5.3,33,1,15,105,70,78,74,293,,,,,,,,2.60,3.00,0.00,0.00,1.2,61,65,,,,,551,8.2,15,550,15,2.0,0,40,15,1,,,,,,,,0,0,
00:00:49_000,49000,14:03,67,0.7,67,99,5.3,34,1,15,105,70,78,74,292,,,,,,,,2.60,3.00,0.00,0.00,1.2,61,65,,,,,551,8.2,15,550,15,2.0,0,40,15,1,,,,,,,,0,0,
00:00:50_000,50000,14:03,67,0.7,67,99,5.3,34,1,15,105,70,78,74,291,,,,,,,,2.60,3.00,0.00,0.00,1.2,61,65,,,,,551,8.2,15,550,15,2.0,0,40,15,1,,,,,,,,0,0,
00:00:51_000,51000,14:03,67,0.7,66,99,5.3,34,1,15,105,70,78,74,290,,,,,,,,2.60,3.00,0.00,0.00,1.2,61,65,,,,,551,8.2,15,550,15,2.0,0,40,15,1,,,,,,,,0,0,
00:00:52_000,52000,14:03,67,0.7,66,99,5.3,34,1,15,105,70,78,74,289,,,,,,,,2.60,3.00,0.00,0.00,1.2,61,65,,,,,551,8.2,15,550,15,2.0,0,40,15,1,,,,,,,,0,0,
00:00:53_000,53000,14:03,67,0.7,66,99,5.2,33,1,15,105,70,78,74,288,,,,,,,,2.60,3.00,0.00,0.00,1.2,61,65,,,,,551,8.2,15,550,15,2.0,0,40,15,1,,,,,,,,0,0,
00:00:54_000,54000,14:03,67,0.7,66,99,5.2,33,1,15,105,70,78,74,287,,,,,,,,2.60,3.00,0.00,0.00,1.2,61,65,,,,,551,8.2,15,550,15,2.0,0,40,15,1,,,,,,,,0,0,
00:00:55_000,55000,14:03,67,0.7,66,99,5.0,33,1,15,105,70,78,74,286,,,,,,,,2.60,3.00,0.00,0.00,1.2,61,65,,,,,551,8.2,15,550,15,2.0,0,40,15,1,,,,,,,,0,0,
00:00:56_000,56000,14:03,67,0.7,66,99,4.7,33,1,15,105,70,78,74,285,,,,,,,,2.60,3.00,0.00,0.00,1.2,61,65,,,,,546,8.3,15,550,15,2.0,0,40,15,1,,,,,,,,0,0,
00:00:57_000,57000,14:03,67,0.7,66,99,4.7,33,1,15,105,70,78,74,285,,,,,,,,2.60,3.00,0.00,0.00,1.2,61,65,,,,,546,8.3,15,550,15,2.0,0,40,15,1,,,,,,,,0,0,
00:00:58_000,58000,14:03,67,0.7,65,99,4.3,33,1,15,105,70,78,74,284,,,,,,,,2.60,3.00,0.00,0.00,1.2,61,65,,,,,546,8.3,15,550,15,2.0,0,40,15,1,,,,,,,,0,0,
00:00:59_000,59000,14:03,67,0.7,65,98,3.9,33,1,15,105,70,78,74,283,,,,,,,,2.60,3.00,0.00,0.00,1.2,61,65,,,,,546,8.3,15,550,15,2.0,0,40,15,1,,,,,,,,0,0,
00:01:00_000,60000,14:03,67,0.7,64,97,3.3,34,1,15,105,70,78,74,282,,,,,,,,2.60,3.00,0.00,0.00,1.2,61,65,,,,,546,8.3,15,550,15,2.0,0,40,15,1,,,,,,,,0,0,
00:01:01_000,61000,14:03,67,0.7,64,96,2.8,33,1,15,105,70,78,74,281,,,,,,,,2.60,3.00,0.00,0.00,1.2,61,65,,,,,546,8.3,15,550,15,2.0,0,40,15,1,,,,,,,,0,0,
00:01:02_000,62000,14:03,67,0.7,64,96,2.8,33,1,15,105,70,78,74,280,,,,,,,,2.60,3.00,0.00,0.00,1.2,61,65,,,,,546,8.3,15,550,15,2.0,0,40,15,1,,,,,,,,0,0,
00:01:03_000,63000,14:03,66,0.7,64,96,2.8,33,1,15,105,70,78,74,279,,,,,,,,2.60,3.00,0.00,0.00,1.2,61,65,,,,,546,8.3,15,550,15,2.0,0,40,15,1,,,,,,,,0,0,
00:01:04_000,64000,14:03,66,0.7,64,96,2.8,34,1,15,105,70,78,74,278,,,,,,,,2.60,3.00,0.00,0.00,1.2,61,65,,,,,546,8.3,15,550,15,2.0,0,40,15,1,,,,,,,,0,0,
00:01:05_000,65000,14:03,66,0.7,64,96,2.8,33,1,15,105,70,78,74,277,,,,,,,,2.60,3.00,0.00,0.00,1.2,61,65,,,,,546,8.3,15,550,15,2.0,0,40,15,1,,,,,,,,0,0,
00:01:06_000,66000,14:03,66,0.7,64,96,2.8,33,1,15,105,70,78,74,276,,,,,,,,2.60,3.00,0.00,0.00,1.2,60,65,,,,,546,8.3,15,550,15,2.0,0,40,15,1,,,,,,,,0,0,
00:01:07_000,67000,14:03,66,0.7,64,96,2.8,33,1,15,105,70,78,74,275,,,,,,,,2.60,3.00,0.00,0.00,1.2,60,65,,,,,550,8.3,15,550,15,2.0,0,40,15,1,,,,,,,,0,0,
00:01:08_000,68000,14:03,66,0.7,64,96,2.8,34,1,15,105,70,78,74,274,,,,,,,,2.60,3.00,0.00,0.00,1.2,60,65,,,,,550,8.3,15,550,15,2.0,0,40,15,1,,,,,,,,0,0,
00:01:09_000,69000,14:03,66,0.7,64,96,2.8,33,1,15,105,70,78,74,273,,,,,,,,2.60,3.00,0.00,0.00,1.2,60,65,,,,,550,8.3,15,550,15,2.0,0,40,15,1,,,,,,,,0,0,
00:01:10_000,70000,14:03,66,0.7,64,96,2.8,33,1,15,105,70,78,74,272,,,,,,,,2.60,3.00,0.00,0.00,1.2,60,65,,,,,550,8.3,15,550,15,2.0,0,40,15,1,,,,,,,,0,0,
00:01:11_000,71000,14:03,66,0.7,64,96,2.8,33,1,15,105,70,78,74,271,,,,,,,,2.60,3.00,0.00,0.00,1.2,60,65,,,,,550,8.3,15,550,15,2.0,0,40,15,1,,,,,,,,0,0,
00:01:12_000,72000,14:03,66,0.7,64,96,2.8,34,1,15,105,70,78,74,270,,,,,,,,2.60,3.00,0.00,0.00,1.2,60,65,,,,,550,8.3,15,550,15,2.0,0,40,15,1,,,,,,,,0,0,
00:01:13_000,73000,14:03,66,0.7,64,96,2.8,33,1,15,105,70,78,74,269,,,,,,,,2.60,3.00,0.00,0.00,1.2,60,65,,,,,550,8.3,15,550,15,2.0,0,40,15,1,,,,,,,,0,0,
00:01:14_000,74000,14:03,66,0.7,64,96,2.8,33,1,15,105,70,78,74,268,,,,,,,,2.60,3.00,0.00,0.00,1.2,60,64,,,,,550,8.3,15,550,15,2.0,0,40,15,1,,,,,,,,0,0,
00:01:15_000,75000,14:03,66,0.7,64,96,2.8,33,1,15,105,70,78,74,267,,,,,,,,2.60,3.00,0.00,0.00,1.2,60,64,,,,,550,8.3,15,550,15,2.0,0,40,15,1,,,,,,,,0,0,
00:01:16_000,76000,14:03,65,0.7,64,96,2.8,34,1,15,105,70,78,74,266,,,,,,,,2.60,3.00,0.00,0.00,1.2,60,64,,,,,550,8.3,15,550,15,2.0,0,40,15,1,,,,,,,,0,0,
00:01:17_000,77000,14:03,65,0.7,64,96,2.8,34,1,15,105,70,78,74,265,,,,,,,,2.60,3.00,0.00,0.00,1.2,60,64,,,,,553,8.3,15,550,15,2.0,0,40,15,1,,,,,,,,0,0,
00:01:18_000,78000,14:03,65,0.7,64,96,2.8,34,1,15,93,,,74,264,,,,,,,,2.60,3.00,0.00,0.00,1.2,60,64,,,,,553,8.3,15,550,15,2.0,0,40,15,1,,,,,,,,0,0,
00:01:19_000,79000,14:03,65,0.7,64,96,2.8,34,1,15,93,,,74,263,,,,,,,,2.60,3.00,0.00,0.00,1.2,60,64,,,,,553,8.3,15,550,15,2.0,0,40,15,1,,,,,,,,0,0,
00:01:20_000,80000,14:03,65,0.7,64,96,2.1,34,1,15,93,,,74,262,,,,,,,,2.60,3.00,0.00,0.00,1.2,60,64,,,,,553,8.3,15,550,15,2.0,0,40,15,1,,,,,,,,0,0,
00:01:21_000,81000,14:03,65,0.7,64,96,1.5,34,1,15,93,,,74,261,,,,,,,,2.60,3.00,0.00,0.00,1.2,60,64,,,,,553,8.3,15,550,15,2.0,0,40,15,1,,,,,,,,0,0,
00:01:22_000,82000,14:03,65,0.7,64,96,1.5,33,1,15,93,,,74,260,,,,,,,,2.60,3.00,0.00,0.00,1.2,60,64,,,,,553,8.3,15,550,15,2.0,0,40,15,1,,,,,,,,0,0,
00:01:23_000,83000,14:03,65,0.7,64,96,1.5,33,1,15,93,,,74,259,,,,,,,,2.60,3.00,0.00,0.00,1.2,60,64,,,,,553,8.3,15,550,15,2.0,0,40,15,1,,,,,,,,0,0,
00:01:24_000,84000,14:03,65,0.7,65,93,1.5,33,1,15,93,,,74,258,,,,,,,,2.60,3.00,0.00,0.00,1.2,60,64,,,,,553,8.3,15,550,15,2.0,0,40,15,1,,,,,,,,0,0,
00:01:25_000,85000,14:03,65,0.7,66,91,1.5,34,1,15,93,,,74,257,,,,,,,,2.60,3.00,0.00,0.00,1.2,60,64,,,,,553,8.3,15,550,15,2.0,0,40,15,1,,,,,,,,0,0,
00:01:26_000,86000,14:03,65,0.7,66,91,1.6,33,1,15,93,,,74,256,,,,,,,,2.60,3.00,0.00,0.00,1.2,60,64,,,,,553,8.3,15,550,15,2.0,0,40,15,1,,,,,,,,0,0,
00:01:27_000,87000,14:03,65,0.7,66,91,1.8,33,1,15,93,,,74,254,,,,,,,,2.60,3.00,0.00,0.00,1.2,60,64,,,,,549,8.3,15,550,15,2.0,0,40,15,1,,,,,,,,0,0,
00:01:28_000,88000,14:03,65,0.7,66,92,1.9,33,1,15,93,,,74,253,,,,,,,,2.60,3.00,0.00,0.00,1.2,60,64,,,,,549,8.3,15,550,15,2.0,0,40,15,1,,,,,,,,0,0,
00:01:29_000,89000,14:03,65,0.7,65,92,2.1,34,1,15,93,,,74,252,,,,,,,,2.60,3.00,0.00,0.00,1.2,60,64,,,,,549,8.3,15,550,15,2.0,0,40,15,1,,,,,,,,0,0,
00:01:30_000,90000,14:03,65,0.7,65,93,2.2,33,1,15,93,,,74,251,,,,,,,,2.60,2.95,0.00,0.00,1.2,60,64,,,,,549,8.3,15,550,15,2.0,0,40,15,1,,,,,,,,0,0,
00:01:31_000,91000,14:03,65,0.7,65,93,2.4,33,1,15,93,,,74,250,,,,,,,,2.60,2.95,0.00,0.00,1.2,60,64,,,,,549,8.3,15,550,15,2.0,0,40,15,1,,,,,,,,0,0,
00:01:32_000,92000,14:03,65,0.7,65,93,2.5,33,1,15,95,61,68,65,249,,,,,,,,2.60,2.95,0.00,0.00,1.2,60,64,,,,,549,8.3,15,550,15,2.0,0,40,15,1,,,,,,,,0,0,
00:01:33_000,93000,14:03,66,0.7,65,94,2.6,34,1,15,95,61,68,65,248,,,,,,,,2.60,2.95,0.00,0.00,1.2,60,64,,,,,549,8.3,15,550,15,2.0,0,40,15,1,,,,,,,,0,0,
00:01:34_000,94000,14:03,66,0.7,65,94,2.7,33,1,15,95,61,68,65,247,,,,,,,,2.60,3.00,0.00,0.00,1.2,60,64,,,,,549,8.3,15,550,15,2.0,0,40,15,1,,,,,,,,0,0,
00:01:35_000,95000,14:03,66,0.7,66,95,2.7,33,1,15,95,61,68,65,246,,,,,,,,2.60,3.00,0.00,0.00,1.2,60,64,,,,,549,8.3,15,550,15,2.0,0,40,15,1,,,,,,,,0,0,
00:01:36_000,96000,14:03,66,0.7,66,95,2.8,33,1,15,95,61,68,65,245,,,,,,,,2.60,3.00,0.00,0.00,1.2,60,64,,,,,549,8.3,15,550,15,2.0,0,40,15,1,,,,,,,,0,0,
00:01:37_000,97000,14:03,66,0.7,66,95,2.8,34,1,15,95,61,68,65,244,,,,,,,,2.60,3.00,0.00,0.00,1.2,60,64,,,,,550,8.3,15,550,15,2.0,0,40,15,1,,,,,,,,0,0,
00:01:38_000,98000,14:03,66,0.7,66,96,2.9,33,1,15,95,61,68,65,243,,,,,,,,2.60,2.95,0.00,0.00,1.2,60,64,,,,,550,8.3,15,550,15,2.0,0,40,15,1,,,,,,,,0,0,
00:01:39_000,99000,14:03,66,0.7,66,96,2.9,33,1,15,95,61,68,65,243,,,,,,,,2.60,2.95,0.00,0.00,1.2,60,64,,,,,550,8.3,15,550,15,2.0,0,40,15,1,,,,,,,,0,0,
00:01:40_000,100000,14:04,66,0.7,66,96,2.9,33,1,15,95,61,68,65,242,,,,,,,,2.60,2.95,0.00,0.00,1.2,60,64,,,,,550,8.3,15,550,15,2.0,0,40,15,1,,,,,,,,0,0,
00:01:41_000,101000,14:04,66,0.7,66,97,3.1,33,1,15,95,61,68,65,241,,,,,,,,2.60,2.95,0.00,0.00,1.2,60,64,,,,,550,8.3,15,550,15,2.0,0,40,15,1,,,,,,,,0,0,
00:01:42_000,102000,14:04,66,0.7,66,97,3.3,33,1,15,95,61,68,65,240,,,,,,,,2.60,2.95,0.00,0.00,1.2,60,64,,,,,550,8.3,15,550,15,2.0,0,40,15,1,,,,,,,,0,0,
00:01:43_000,103000,14:04,66,0.7,66,98,3.7,33,1,15,95,61,68,65,239,,,,,,,,2.60,2.95,0.00,0.00,1.2,60,64,,,,,550,8.3,15,550,15,2.0,0,40,15,1,,,,,,,,0,0,
00:01:44_000,104000,14:04,66,0.7,65,98,4.1,34,1,15,95,61,68,65,238,,,,,,,,2.60,2.95,0.00,0.00,1.2,60,64,,,,,550,8.3,15,550,15,2.0,0,40,15,1,,,,,,,,0,0,
00:01:45_000,105000,14:04,66,0.7,66,99,4.4,33,1,15,95,61,68,65,237,,,,,,,,2.60,2.95,0.00,0.00,1.2,60,64,,,,,550,8.3,15,550,15,2.0,0,40,15,1,,,,,,,,0,0,
00:01:46_000,106000,14:04,66,0.7,66,99,4.8,33,1,15,95,61,68,65,236,,,,,,,,2.55,2.95,0.00,0.00,1.2,60,64,,,,,550,8.3,15,550,15,2.0,0,40,15,1,,,,,,,,0,0,
00:01:47_000,107000,14:04,66,0.7,66,99,4.9,33,1,15,95,61,68,65,235,,,,,,,,2.55,2.95,0.00,0.00,1.2,60,64,,,,,550,8.3,15,550,15,2.0,0,40,15,1,,,,,,,,0,0,
00:01:48_000,108000,14:04,66,0.7,66,99,4.9,33,1,15,95,61,68,65,234,,,,,,,,2.55,2.95,0.00,0.00,1.2,60,64,,,,,550,8.3,15,550,15,2.0,0,40,15,1,,,,,,,,0,0,
00:01:49_000,109000,14:04,66,0.7,66,99,4.9,33,1,15,95,61,68,65,233,,,,,,,,2.55,2.95,0.00,0.00,1.2,60,64,,,,,550,8.3,15,550,15,2.0,0,40,15,1,,,,,,,,0,0,
00:01:50_000,110000,14:04,66,0.7,66,99,4.9,33,1,15,95,61,68,65,232,,,,,,,,2.55,2.95,0.00,0.00,1.2,60,64,,,,,550,8.3,15,550,15,2.0,0,40,15,1,,,,,,,,0,0,
00:01:51_000,111000,14:04,66,0.7,66,99,4.9,33,1,15,95,61,68,65,231,,,,,,,,2.55,2.95,0.00,0.00,1.2,60,64,,,,,550,8.3,15,550,15,2.0,0,40,15,1,,,,,,,,0,0,
00:01:52_000,112000,14:04,66,0.7,66,99,5.0,33,1,15,95,61,68,65,230,,,,,,,,2.55,2.95,0.00,0.00,1.2,60,64,,,,,550,8.3,15,550,15,2.0,0,40,15,1,,,,,,,,0,0,
00:01:53_000,113000,14:04,66,0.7,66,99,5.0,33,1,15,95,61,68,65,229,,,,,,,,2.55,2.95,0.00,0.00,1.2,60,64,,,,,550,8.3,15,550,15,2.0,0,40,15,1,,,,,,,,0,0,
00:01:54_000,114000,14:04,66,0.7,65,99,5.0,33,1,15,95,61,68,65,228,,,,,,,,2.55,2.95,0.00,0.00,1.2,60,64,,,,,550,8.3,15,550,15,2.0,0,40,15,1,,,,,,,,0,0,
00:01:55_000,115000,14:04,66,0.7,65,99,5.0,33,1,15,95,61,68,65,227,,,,,,,,2.55,2.95,0.00,0.00,1.2,60,64,,,,,550,8.3,15,550,15,2.0,0,40,15,1,,,,,,,,0,0,
00:01:56_000,116000,14:04,66,0.7,65,99,5.1,33,1,15,95,61,68,65,226,,,,,,,,2.55,2.95,0.00,0.00,1.2,60,64,,,,,550,8.3,15,550,15,2.0,0,40,15,1,,,,,,,,0,0,
00:01:57_000,117000,14:04,66,0.7,65,99,5.1,33,1,15,95,61,68,65,225,,,,,,,,2.55,2.95,0.00,0.00,1.2,60,64,,,,,550,8.3,15,550,15,2.0,0,40,15,1,,,,,,,,0,0,
00:01:58_000,118000,14:04,66,0.7,65,99,5.1,33,1,15,95,61,68,65,224,,,,,,,,2.55,2.95,0.00,0.00,1.2,60,64,,,,,549,8.3,15,550,15,2.0,0,40,15,1,,,,,,,,0,0,
00:01:59_000,119000,14:04,66,0.7,66,99,5.0,33,1,15,95,61,68,65,223,,,,,,,,2.55,2.95,0.00,0.00,1.2,60,64,,,,,549,8.3,15,550,15,2.0,0,40,15,1,,,,,,,,0,0,
00:02:00_000,120000,14:04,66,0.7,66,99,5.0,33,1,15,95,61,68,65,222,,,,,,,,2.55,2.95,0.00,0.00,1.2,60,64,,,,,549,8.3,15,550,15,2.0,0,40,15,1,,,,,,,,0,0,
00:02:01_000,121000,14:04,66,0.7,66,99,5.0,33,1,15,95,61,68,65,221,,,,,,,,2.55,2.95,0.00,0.00,1.2,60,64,,,,,549,8.3,15,550,15,2.0,0,40,15,1,,,,,,,,0,0,
00:02:02_000,122000,14:04,66,0.7,66,99,5.0,33,1,15,95,61,68,65,220,,,,,,,,2.55,2.95,0.00,0.00,1.2,59,64,,,,,549,8.3,15,550,15,2.0,0,40,15,1,,,,,,,,0,0,
00:02:03_000,123000,14:04,66,0.7,66,99,5.1,33,1,15,95,61,68,65,219,,,,,,,,2.55,2.95,0.00,0.00,1.2,59,64,,,,,549,8.3,15,550,15,2.0,0,40,15,1,,,,,,,,0,0,
00:02:04_000,124000,14:04,65,0.7,66,99,5.2,33,1,15,95,61,68,65,218,,,,,,,,2.55,2.95,0.00,0.00,1.2,59,64,,,,,549,8.3,15,550,15,2.0,0,40,15,1,,,,,,,,0,0,
00:02:05_000,125000,14:04,65,0.7,65,99,5.2,33,1,15,95,61,68,65,217,,,,,,,,2.55,2.95,0.00,0.00,1.2,59,64,,,,,549,8.3,15,550,15,2.0,0,40,15,1,,,,,,,,0,0,
00:02:06_000,126000,14:04,65,0.7,65,99,5.2,33,1,15,95,61,68,65,216,,,,,,,,2.55,2.95,0.00,0.00,1.2,59,64,,,,,549,8.3,15,550,15,2.0,0,40,15,1,,,,,,,,0,0,
00:02:07_000,127000,14:04,65,0.7,65,99,5.1,33,1,15,95,61,68,65,215,,,,,,,,2.55,2.95,0.00,0.00,1.2,59,64,,,,,549,8.3,15,550,15,2.0,0,40,15,1,,,,,,,,0,0,
00:02:08_000,128000,14:04,65,0.7,65,99,5.1,33,1,15,95,61,68,65,214,,,,,,,,2.55,2.95,0.00,0.00,1.2,59,64,,,,,549,8.3,15,550,15,2.0,0,40,15,1,,,,,,,,0,0,
00:02:09_000,129000,14:04,66,0.7,65,99,5.1,33,1,15,95,61,68,65,212,,,,,,,,2.55,2.95,0.00,0.00,1.2,59,64,,,,,549,8.3,15,550,15,2.0,0,40,15,1,,,,,,,,0,0,
00:02:10_000,130000,14:04,66,0.7,65,99,5.1,33,1,15,95,61,68,65,211,,,,,,,,2.55,2.95,0.00,0.00,1.2,59,63,,,,,549,8.3,15,550,15,2.0,0,40,15,1,,,,,,,,0,0,
00:02:11_000,131000,14:04,65,0.7,65,99,5.1,33,1,15,95,61,68,65,210,,,,,,,,2.55,2.95,0.00,0.00,1.2,59,63,,,,,549,8.3,15,550,15,2.0,0,40,15,1,,,,,,,,0,0,
00:02:12_000,132000,14:04,66,0.7,66,99,5.1,33,1,15,95,61,68,65,209,,,,,,,,2.55,2.95,0.00,0.00,1.2,59,63,,,,,549,8.3,15,550,15,2.0,0,40,15,1,,,,,,,,0,0,
00:02:13_000,133000,14:04,66,0.7,66,99,5.1,33,1,15,95,61,68,65,208,,,,,,,,2.55,2.95,0.00,0.00,1.2,59,63,,,,,549,8.3,15,550,15,2.0,0,40,15,1,,,,,,,,0,0,
00:02:14_000,134000,14:04,66,0.7,66,99,5.1,33,1,15,95,61,68,65,207,,,,,,,,2.55,2.95,0.00,0.00,1.2,59,63,,,,,549,8.3,15,550,15,2.0,0,40,15,1,,,,,,,,0,0,
00:02:15_000,135000,14:04,66,0.7,66,99,5.2,33,1,15,95,61,68,65,206,,,,,,,,2.55,2.95,0.00,0.00,1.2,59,63,,,,,549,8.3,15,550,15,2.0,0,40,15,1,,,,,,,,0,0,
00:02:16_000,136000,14:04,66,0.7,66,99,5.2,33,1,15,95,61,68,65,205,,,,,,,,2.55,2.95,0.00,0.00,1.2,59,63,,,,,549,8.3,15,550,15,2.0,0,40,15,1,,,,,,,,0,0,
00:02:17_000,137000,14:04,66,0.7,66,99,5.2,33,1,15,95,61,68,65,204,,,,,,,,2.55,2.95,0.00,0.00,1.2,59,63,,,,,549,8.3,15,550,15,2.0,0,40,15,1,,,,,,,,0,0,
00:02:18_000,138000,14:04,66,0.7,66,99,5.2,33,1,15,95,61,68,65,203,,,,,,,,2.55,2.95,0.00,0.00,1.2,59,63,,,,,549,8.3,15,550,15,2.0,0,40,15,1,,,,,,,,0,0,
00:02:19_000,139000,14:04,66,0.7,66,99,5.2,33,1,15,95,61,68,65,202,,,,,,,,2.55,2.95,0.00,0.00,1.2,59,63,,,,,548,8.3,15,550,15,2.0,0,40,15,1,,,,,,,,0,0,
00:02:20_000,140000,14:04,66,0.7,66,99,5.1,33,1,15,95,61,68,65,201,,,,,,,,2.55,2.95,0.00,0.00,1.2,59,63,,,,,548,8.3,15,550,15,2.0,0,40,15,1,,,,,,,,0,0,
00:02:21_000,141000,14:04,66,0.7,66,99,5.1,33,1,15,95,61,68,65,200,,,,,,,,2.55,2.95,0.00,0.00,1.2,59,63,,,,,548,8.3,15,550,15,2.0,0,40,15,1,,,,,,,,0,0,
00:02:22_000,142000,14:04,66,0.7,66,99,5.1,33,1,15,95,61,68,65,200,,,,,,,,2.55,2.95,0.00,0.00,1.2,59,63,,,,,548,8.3,15,550,15,2.0,0,40,15,1,,,,,,,,0,0,
00:02:23_000,143000,14:04,66,0.7,66,99,5.1,33,1,15,95,61,68,65,199,,,,,,,,2.55,2.95,0.00,0.00,1.2,59,63,,,,,548,8.3,15,550,15,2.0,0,40,15,1,,,,,,,,0,0,
00:02:24_000,144000,14:04,66,0.7,66,99,5.1,33,1,15,95,61,68,65,198,,,,,,,,2.55,2.95,0.00,0.00,1.2,59,63,,,,,548,8.3,15,550,15,2.0,0,40,15,1,,,,,,,,0,0,
00:02:25_000,145000,14:04,66,0.7,66,99,5.1,33,1,15,95,61,68,65,197,,,,,,,,2.55,2.95,0.00,0.00,1.2,59,63,,,,,548,8.3,15,550,15,2.0,0,40,15,1,,,,,,,,0,0,
00:02:26_000,146000,14:04,66,0.7,66,99,5.2,33,1,15,95,61,68,65,196,,,,,,,,2.55,2.95,0.00,0.00,1.2,59,63,,,,,548,8.3,15,550,15,2.0,0,40,15,1,,,,,,,,0,0,
00:02:27_000,147000,14:04,66,0.7,66,99,5.2,33,1,15,95,61,68,65,195,,,,,,,,2.55,2.95,0.00,0.00,1.2,59,63,,,,,548,8.3,15,550,15,2.0,0,40,15,1,,,,,,,,0,0,
00:02:28_000,148000,14:04,66,0.7,66,99,5.2,33,1,15,95,61,68,65,194,,,,,,,,2.55,2.95,0.00,0.00,1.2,59,63,,,,,548,8.3,15,550,15,2.0,0,40,15,1,,,,,,,,0,0,
00:02:29_000,149000,14:04,66,0.7,66,99,5.2,33,1,15,95,61,68,65,193,,,,,,,,2.55,2.95,0.00,0.00,1.2,59,63,,,,,548,8.3,15,550,15,2.0,0,40,15,1,,,,,,,,0,0,
00:02:30_000,150000,14:04,66,0.7,66,99,5.2,33,1,15,95,61,68,65,192,,,,,,,,2.55,2.95,0.00,0.00,1.2,59,63,,,,,548,8.3,15,550,15,2.0,0,40,15,1,,,,,,,,0,0,
00:02:31_000,151000,14:04,66,0.7,66,99,5.1,33,1,15,95,61,68,65,191,,,,,,,,2.55,2.95,0.00,0.00,1.2,59,63,,,,,548,8.3,15,550,15,2.0,0,40,15,1,,,,,,,,0,0,
00:02:32_000,152000,14:04,66,0.7,66,99,5.1,33,1,15,95,61,68,65,190,,,,,,,,2.55,2.95,0.00,0.00,1.2,59,63,,,,,548,8.3,15,550,15,2.0,0,40,15,1,,,,,,,,0,0,